GFSNW_700_spd_096.txt.gz
Wind_Speed
22 20 17 19 17 14 10 11 22 22 29 29 29 27 21 19 16 14 13 10 10 9 9 7 3 3 2 4 5 4 5 6 10 8 6 9 11 19 17 5 6 3 2 8
25 18 15 12 11 9 12 18 19 19 21 23 23 22 20 16 13 12 9 7 8 10 9 3 4 6 7 5 4 4 6 6 9 2 2 6 10 15 16 3 3 9 2 3
24 22 17 14 10 4 10 10 16 21 19 20 20 18 18 19 15 14 13 11 9 7 6 5 3 4 5 6 3 3 4 6 5 3 6 9 11 12 14 6 6 8 8 9
24 22 19 17 11 4 5 15 11 7 14 15 14 15 15 16 15 12 9 10 11 9 4 6 5 3 2 3 3 3 4 4 6 5 5 6 8 9 9 9 5 3 6 7
21 21 19 16 11 4 8 6 11 12 13 14 12 11 11 9 8 7 7 7 6 5 2 2 3 2 1 2 3 4 5 5 10 8 4 6 8 7 1 3 5 5 4 2
15 16 18 16 11 5 3 7 6 8 7 7 8 7 6 6 5 5 6 6 5 3 3 2 1 2 5 4 3 5 6 7 9 4 7 8 7 3 3 4 2 1 4 5
13 12 13 15 13 7 1 5 6 5 4 5 5 4 5 5 4 5 4 3 3 3 4 5 7 8 9 9 7 7 8 9 8 7 7 1 4 5 5 5 6 7 6 6
13 10 10 10 12 10 4 3 4 7 8 7 6 7 8 7 6 6 5 5 5 6 7 8 8 10 12 10 10 7 7 8 5 4 6 11 9 6 7 7 8 8 7 7
17 12 9 8 7 8 8 4 4 6 9 11 10 11 10 10 9 10 9 9 9 8 8 7 5 4 5 4 5 7 7 7 8 4 4 5 4 4 5 7 14 9 8 8
16 15 12 8 7 7 7 6 6 6 8 12 13 13 14 13 12 10 10 11 10 11 10 9 7 6 7 5 5 5 8 10 14 12 7 8 10 8 7 5 3 4 6 7
16 14 12 11 8 9 10 9 8 8 11 11 14 15 16 16 16 14 12 11 13 12 10 6 6 7 7 9 10 11 8 6 6 6 7 6 6 5 6 5 8 10 10 11
17 16 13 10 10 9 11 13 13 12 11 12 10 9 14 16 16 16 17 17 14 8 6 7 6 10 13 15 9 12 9 8 5 7 6 8 10 12 16 18 16 13 13 13
16 17 15 13 10 11 11 12 14 15 15 13 11 10 13 18 19 19 19 18 18 20 20 20 18 18 18 18 18 20 19 18 22 21 8 8 9 13 14 14 14 15 15 16
16 17 15 14 12 10 12 12 13 15 17 17 14 11 11 14 18 20 22 22 22 23 23 23 25 27 22 27 27 31 30 29 30 32 28 27 26 23 21 21 20 17 16 18
17 16 15 13 14 12 11 11 12 13 15 17 17 16 16 16 16 18 20 23 25 26 28 29 30 31 31 36 38 43 33 28 30 27 14 20 20 19 20 18 17 18 18 19
20 18 16 14 14 14 12 10 9 10 13 17 18 12 16 18 17 17 20 22 24 26 29 30 32 32 29 23 35 41 31 25 23 22 21 22 17 15 16 16 17 19 21 21
21 20 19 15 15 14 14 12 13 10 11 14 12 10 9 8 7 11 15 18 21 23 29 33 33 33 32 42 43 37 35 31 27 29 32 31 26 23 21 22 22 22 22 21
23 21 20 19 17 16 15 15 14 13 12 14 9 10 12 11 12 16 17 15 15 22 26 34 34 34 32 34 24 17 12 9 12 18 20 27 28 26 24 24 23 21 20 21
24 23 23 20 20 18 17 16 16 16 15 10 11 13 12 8 8 13 18 23 24 22 25 26 22 28 26 27 24 24 28 29 28 20 17 13 17 19 18 16 17 19 19 20
28 25 24 23 20 18 18 19 21 20 19 24 18 14 17 16 18 20 14 11 8 10 14 14 21 32 19 12 16 21 19 19 23 18 15 11 8 8 9 12 17 17 18 20
30 29 27 23 19 20 20 13 10 9 8 9 7 6 6 8 10 12 8 6 7 6 6 8 9 21 14 16 21 25 21 17 18 22 17 11 10 10 15 16 15 17 19 21
29 30 27 24 20 13 12 12 12 13 9 9 7 7 6 6 8 7 7 8 6 6 8 7 7 14 20 24 23 20 18 15 9 20 25 23 21 22 17 14 16 18 20 24
31 29 25 14 15 20 14 15 13 12 10 9 9 9 8 7 6 6 6 5 8 8 7 6 9 8 16 24 20 15 12 9 6 1 7 11 12 11 12 14 16 19 22 24
35 26 20 16 14 14 27 26 15 16 12 10 10 10 7 8 7 8 6 8 7 7 8 10 13 13 17 23 24 20 13 10 6 5 5 6 8 11 13 14 17 20 23 24
40 22 16 25 28 24 14 20 23 17 14 12 12 12 12 10 8 7 9 6 8 10 10 10 13 18 21 27 28 24 18 15 13 11 11 11 12 12 14 16 18 20 22 25
43 36 27 22 24 30 29 24 22 19 16 15 15 12 7 12 8 10 12 7 11 11 9 15 19 22 27 28 21 21 17 17 15 14 13 13 14 14 16 18 20 23 24 25
53 59 50 33 29 23 25 25 24 22 20 20 14 9 10 9 10 15 20 21 14 15 19 19 22 23 20 21 23 23 21 18 18 17 16 15 15 16 17 17 20 24 24 26

GFSNW_700_spd_102.txt.gz
Wind_Speed
25 26 23 23 23 20 17 19 26 20 16 15 26 24 21 19 16 14 11 9 8 7 7 5 3 1 3 4 1 3 4 6 9 5 7 7 8 5 12 5 1 5 4 5
22 21 20 18 17 15 14 18 18 12 9 18 22 21 17 15 11 7 6 5 5 5 3 1 1 2 1 1 1 3 5 4 8 2 2 3 5 6 10 13 7 6 2 4
25 19 16 16 15 15 15 15 13 13 10 13 13 13 10 9 7 6 5 5 4 1 3 3 3 4 3 2 2 5 8 8 9 9 10 14 16 11 9 9 6 6 9 6
20 21 16 11 10 11 13 12 12 9 8 9 6 6 8 6 4 3 3 2 2 3 4 4 5 5 6 6 5 7 8 11 14 16 20 22 23 17 12 13 10 8 7 9
22 17 17 14 8 6 8 9 8 7 6 5 5 5 4 2 2 1 2 2 4 6 6 7 8 6 7 7 7 9 12 11 19 24 16 14 21 22 19 17 15 13 11 10
22 20 15 14 12 6 2 2 4 4 2 3 3 3 4 4 4 2 3 4 6 7 8 9 11 11 12 13 14 13 12 11 16 9 13 20 21 10 16 19 17 14 15 9
22 20 19 13 11 11 6 5 4 3 3 3 3 4 5 7 9 8 9 9 9 9 11 13 15 16 17 19 17 17 16 15 12 14 16 3 3 6 7 12 17 18 16 12
21 21 18 17 13 10 10 7 9 10 11 9 9 8 8 8 9 10 11 13 14 16 16 17 14 13 11 8 9 12 15 15 9 6 11 23 13 7 14 14 13 14 15 14
22 18 18 18 16 13 11 10 9 10 12 14 14 14 13 13 13 14 14 14 15 15 17 15 6 5 13 5 8 10 11 14 14 9 4 5 7 8 8 11 13 6 6 10
23 20 16 17 18 15 14 13 13 12 13 12 13 16 18 18 17 17 16 18 18 18 16 15 11 8 13 8 8 9 10 12 20 22 11 13 17 14 12 6 5 10 9 9
26 20 18 16 17 20 17 16 15 17 17 15 17 16 16 19 21 20 18 17 17 15 15 11 10 9 10 11 14 13 12 9 10 8 8 9 5 7 7 13 17 19 22 21
27 23 18 17 16 17 22 19 18 17 18 18 19 19 19 19 17 21 24 23 17 9 9 7 7 11 16 20 21 23 15 14 10 11 10 19 28 35 35 31 25 24 19 19
26 23 22 19 17 15 17 22 21 22 20 18 19 19 17 16 18 20 22 22 22 23 22 23 22 24 22 24 23 22 25 25 31 33 37 35 28 29 26 28 34 31 30 28
22 23 24 23 19 17 16 19 22 22 24 22 13 17 20 19 18 17 18 21 23 24 24 25 27 31 23 26 30 38 35 37 38 41 32 30 25 24 20 24 26 29 30 28
24 22 24 24 24 20 19 19 21 23 22 25 25 21 22 26 27 27 25 23 23 25 26 28 30 30 34 37 36 37 30 27 24 35 24 26 30 22 21 23 23 22 24 24
24 26 24 24 25 24 22 23 20 17 23 27 28 23 24 21 19 19 20 21 24 26 28 29 31 31 29 21 31 34 31 30 26 23 24 26 26 25 29 28 22 24 22 20
26 30 26 25 24 25 24 24 25 23 25 27 20 18 9 9 11 15 17 19 21 23 27 31 31 32 33 40 44 21 19 16 16 20 22 23 20 21 23 29 30 30 25 23
30 27 27 28 30 25 25 26 26 26 24 27 14 15 16 16 16 16 17 17 19 24 28 31 31 32 32 29 12 16 17 17 15 19 24 26 25 24 27 25 25 25 26 24
31 30 28 29 30 32 28 27 29 28 27 21 26 27 23 12 12 13 16 17 20 25 27 27 20 25 20 19 19 15 15 18 21 22 23 24 22 22 22 18 20 17 16 17
32 31 30 33 34 32 30 27 29 32 34 38 41 38 35 29 23 15 12 11 10 11 14 14 17 25 12 13 11 13 15 17 18 18 20 23 20 18 14 12 7 5 8 12
36 35 34 34 33 34 33 20 14 14 20 26 32 27 28 27 25 19 10 8 8 7 7 8 8 14 9 11 10 11 13 14 16 19 19 17 14 11 9 8 6 8 13 13
40 37 36 37 35 32 19 14 12 16 16 22 25 22 19 21 21 15 9 11 7 7 9 8 8 10 8 11 12 12 14 17 19 19 18 16 12 9 11 12 14 18 12 12
46 42 40 26 22 23 18 20 17 15 24 28 23 17 17 17 17 13 9 8 9 8 9 9 14 8 9 11 13 16 20 23 24 22 19 17 12 11 12 14 13 13 14 14
43 40 29 22 18 20 39 38 35 31 26 20 17 15 17 21 15 12 8 10 9 8 10 16 12 9 11 12 15 18 21 21 21 16 14 15 14 13 12 13 14 14 15 16
49 39 23 36 50 51 32 20 18 23 30 26 21 20 22 19 14 11 12 9 10 12 12 6 10 12 13 15 17 19 19 19 17 17 15 15 16 17 17 17 17 18 18 18
57 42 41 59 53 42 35 33 30 30 28 28 28 23 15 18 12 15 17 13 14 18 14 13 13 14 17 19 20 21 20 20 22 20 19 19 19 20 20 20 20 21 21 21
47 45 61 68 60 43 24 29 30 32 32 32 25 19 21 14 16 23 24 41 34 21 18 15 16 15 18 21 23 24 24 24 23 23 23 22 21 22 23 23 23 22 22 23

GFSNW_700_spd_108.txt.gz
Wind_Speed
23 21 20 21 22 22 20 21 24 20 16 16 25 25 23 19 17 15 14 12 12 10 6 8 5 4 5 6 6 5 5 2 4 4 8 9 11 12 9 4 2 7 6 10
24 21 16 18 18 16 14 19 20 18 13 14 19 19 18 17 12 10 9 9 9 7 7 4 4 3 3 3 3 4 7 3 5 2 3 7 10 11 12 13 13 13 6 4
27 23 18 13 12 13 14 12 12 15 13 15 14 15 13 13 12 11 8 6 5 5 4 2 0 1 1 4 5 6 9 8 8 10 12 16 19 19 21 18 12 14 21 24
24 24 22 15 10 9 9 9 10 9 9 11 11 10 9 8 7 6 4 4 4 2 1 2 2 3 6 7 9 10 9 15 18 21 22 25 30 28 23 26 30 22 23 23
25 23 21 20 14 9 5 5 5 4 5 5 5 5 5 4 4 2 1 1 2 3 4 5 9 10 11 11 12 13 16 15 22 32 23 17 25 25 24 27 28 32 33 35
27 24 21 19 18 13 8 3 2 2 3 2 1 2 2 2 3 3 4 4 4 6 8 9 11 14 16 19 20 19 20 18 16 12 15 28 17 2 6 13 15 16 22 16
28 27 23 19 16 15 12 8 3 4 6 6 7 7 7 7 7 7 8 9 9 10 12 14 17 19 21 24 24 25 25 21 16 16 19 4 5 12 16 13 13 12 13 13
28 27 26 22 18 15 14 11 9 8 7 7 9 11 12 13 13 13 13 13 14 14 15 17 14 16 12 10 14 17 19 20 9 6 8 22 10 3 10 13 11 6 9 12
27 28 26 25 20 17 14 14 12 10 10 6 9 10 12 14 15 17 17 17 17 16 15 14 6 5 10 5 7 10 12 14 17 6 5 5 7 11 16 9 2 5 16 21
25 26 26 24 22 17 15 14 15 14 12 9 11 12 15 14 14 16 16 18 18 17 16 14 10 8 12 7 7 6 8 12 21 19 12 16 19 13 7 3 4 21 27 26
23 25 24 23 22 19 17 15 16 18 15 15 11 13 12 14 15 14 16 17 15 13 12 8 9 10 10 11 13 12 13 10 12 10 10 12 2 5 13 19 32 31 26 20
24 25 25 22 19 19 17 17 16 17 19 18 17 15 14 14 18 22 23 20 19 12 10 10 9 12 16 21 13 19 15 16 13 14 14 21 29 30 29 32 34 31 33 32
24 26 26 25 18 17 19 20 18 19 19 21 15 15 9 14 14 15 20 19 20 22 22 24 24 24 24 19 23 26 29 27 31 33 31 27 29 27 26 30 33 32 31 30
24 26 26 25 21 20 22 22 22 20 20 24 6 17 21 22 21 19 20 20 23 24 23 24 27 29 23 29 31 39 36 33 31 35 27 21 22 21 18 23 27 29 30 31
27 27 27 25 25 23 23 23 22 25 18 19 22 23 22 19 23 23 20 20 22 23 25 29 32 34 33 39 41 29 16 17 27 31 23 24 20 19 19 20 20 23 27 26
32 31 29 28 26 24 24 27 26 23 26 31 30 24 22 24 13 11 15 17 21 25 28 30 34 33 29 23 36 25 19 21 23 20 18 17 15 17 20 22 25 25 23 20
34 33 34 31 29 25 25 27 30 27 29 28 25 23 5 5 18 18 19 21 21 22 26 32 32 35 33 42 46 23 25 22 17 15 15 11 12 16 19 23 24 24 22 19
38 37 37 36 33 31 29 29 31 31 30 29 13 20 21 22 25 24 22 20 21 26 28 34 34 31 33 34 23 16 14 14 13 13 13 11 11 14 17 20 20 20 18 16
38 40 39 40 38 33 34 34 34 37 32 28 27 37 31 20 19 19 20 21 25 28 34 36 25 33 30 20 23 21 19 15 13 12 12 12 14 13 15 15 14 11 9 11
38 38 35 40 40 34 32 37 41 43 43 47 43 32 42 32 31 27 20 14 15 14 19 20 26 41 21 18 18 25 23 19 14 11 13 14 13 13 14 14 12 10 7 6
35 34 37 39 36 31 32 29 24 18 19 22 19 21 30 26 29 27 15 11 9 8 11 15 12 38 21 12 16 17 16 14 14 13 15 16 16 16 14 13 13 12 11 11
32 34 33 34 35 35 20 24 21 20 16 18 19 24 21 22 24 20 13 15 10 10 12 9 14 22 15 19 14 14 12 12 13 15 17 17 17 15 14 13 12 13 14 16
26 27 33 25 19 22 23 26 25 14 16 17 16 17 18 21 20 15 12 11 12 11 9 11 32 28 18 16 13 12 11 13 14 15 17 16 14 14 14 14 14 14 15 17
26 29 31 25 16 21 41 43 39 33 31 29 29 24 18 20 16 16 8 12 9 9 10 28 28 27 19 10 12 13 13 13 13 14 15 16 15 15 15 15 16 16 17 18
31 29 21 36 50 51 44 33 25 20 21 28 24 18 19 18 13 9 12 8 11 10 11 10 8 6 11 16 18 16 15 14 15 15 15 16 17 16 17 18 18 19 20 20
38 37 36 45 47 48 41 42 43 38 34 35 32 24 10 16 11 15 18 16 21 24 21 17 16 16 17 19 20 18 15 16 17 17 16 16 16 18 19 19 20 22 23 23
42 52 52 53 58 55 54 53 46 36 35 34 28 28 20 14 14 24 27 42 44 38 31 31 32 28 27 24 23 19 22 24 27 25 21 20 18 15 18 21 21 22 23 23

GFSNW_700_spd_114.txt.gz
Wind_Speed
28 25 20 18 16 15 14 14 17 12 12 13 16 19 18 17 15 14 13 10 10 5 6 4 3 1 2 1 3 4 3 4 6 7 10 11 14 11 11 6 4 9 11 16
30 26 22 18 14 13 10 13 12 12 11 14 15 17 15 15 13 9 7 7 6 5 5 3 2 1 1 2 3 4 4 3 5 2 9 8 10 14 19 22 21 24 8 12
30 29 25 20 16 11 9 7 6 9 9 10 10 10 8 9 8 8 5 6 4 4 3 1 2 2 1 4 6 7 9 10 11 12 11 11 21 22 19 20 19 28 37 41
27 29 29 24 18 13 8 7 6 4 4 5 5 5 5 4 3 2 3 2 1 1 1 3 5 6 8 10 11 13 12 17 18 23 27 28 32 34 33 34 39 34 42 37
24 24 27 27 22 16 11 6 3 3 2 1 1 1 1 1 1 2 3 3 3 4 5 7 8 11 11 12 18 16 19 17 21 34 31 20 29 31 33 35 36 43 46 43
21 22 23 25 25 20 14 9 5 5 5 6 7 6 5 5 5 5 7 7 8 9 10 13 14 17 18 20 23 25 22 22 18 13 16 26 29 16 18 24 23 21 29 23
19 21 23 23 23 22 16 12 9 6 6 7 11 10 11 11 11 12 11 11 14 13 15 17 20 22 24 27 29 29 25 16 12 18 20 4 5 13 11 18 23 22 23 21
22 21 20 21 22 21 20 14 10 10 9 9 8 10 13 15 17 17 18 17 18 17 20 22 19 20 19 15 16 21 25 21 12 8 9 27 24 16 18 9 17 18 25 17
21 21 21 23 20 20 19 17 13 11 11 8 9 9 10 12 15 18 16 17 18 18 18 16 6 5 7 7 7 9 14 18 17 6 7 6 7 10 12 18 26 6 11 16
24 22 18 19 20 19 18 16 14 15 14 9 14 15 11 11 12 15 19 18 18 17 17 15 10 10 13 8 7 8 12 15 26 24 14 18 22 21 21 9 9 12 14 18
25 24 20 17 19 18 17 16 15 15 16 13 10 14 18 16 16 15 14 14 11 12 13 9 11 12 12 14 16 15 14 10 13 15 12 15 4 9 15 19 23 23 27 32
26 24 23 18 18 20 19 16 17 18 15 15 19 17 15 12 17 17 17 15 15 9 8 9 10 14 17 22 16 15 16 18 12 17 14 21 34 37 33 31 32 36 36 35
25 24 26 23 19 20 20 19 19 20 21 16 12 6 7 11 15 17 21 21 22 25 25 27 27 29 26 24 25 24 28 28 33 35 36 31 32 38 36 32 35 34 30 27
31 26 24 27 23 21 23 21 20 21 24 26 10 16 18 20 23 21 24 27 28 26 26 27 32 36 23 30 33 38 32 34 40 45 41 33 31 25 24 24 25 27 24 23
37 32 27 26 29 25 23 23 24 23 21 28 29 28 22 18 24 29 31 29 27 28 29 31 35 37 36 39 41 47 38 28 33 38 28 29 30 28 29 22 22 26 26 25
39 34 31 31 28 30 27 25 24 19 26 33 37 29 31 22 11 9 13 14 20 24 29 31 35 38 34 27 44 44 37 31 28 30 27 29 31 32 29 26 24 25 26 25
38 37 33 30 31 28 26 28 29 30 32 33 26 25 17 7 13 25 27 26 27 28 31 35 37 38 37 48 55 34 34 32 32 29 27 27 27 28 24 24 25 25 25 27
33 30 28 30 37 38 34 28 32 32 31 33 18 17 21 25 29 34 28 26 27 31 31 35 37 37 37 48 27 27 26 23 27 26 27 26 27 24 22 23 23 24 25 26
24 25 29 31 32 33 31 30 32 34 32 29 25 24 23 18 25 34 34 32 29 33 35 35 30 35 30 30 34 28 30 36 36 36 33 29 27 23 23 22 23 24 25 25
26 24 25 25 27 27 27 29 34 39 41 43 49 44 40 35 34 31 28 23 14 20 24 18 26 45 20 24 29 32 28 22 25 28 31 30 31 25 22 22 23 26 26 25
23 24 26 25 23 24 21 16 13 11 12 13 5 10 16 23 27 27 14 11 9 9 12 12 14 32 21 26 32 32 34 34 31 27 24 26 27 25 23 24 25 25 24 23
22 22 23 23 21 15 12 11 11 11 8 11 8 8 10 10 10 12 10 14 9 10 12 10 16 23 34 32 32 35 26 24 21 16 16 16 18 22 23 25 25 23 23 22
21 20 20 12 12 19 13 11 13 8 8 8 12 18 20 18 15 12 12 12 14 13 11 17 28 25 22 27 29 21 19 14 13 14 15 15 15 20 23 24 24 24 24 23
19 18 16 14 14 13 21 26 28 24 23 20 23 23 19 21 19 15 11 13 10 8 18 36 30 15 22 28 29 26 15 15 17 18 21 21 21 21 20 20 22 24 26 26
25 16 17 31 37 37 35 28 22 20 18 18 17 24 28 26 14 16 12 9 11 12 16 18 18 23 25 30 32 24 23 20 19 27 28 29 27 23 24 26 28 28 30 30
34 29 37 46 45 45 43 40 38 37 37 38 38 34 22 27 19 21 21 18 25 32 30 25 34 41 34 32 35 35 29 29 28 31 34 24 35 30 29 30 29 32 32 31
44 48 49 50 49 50 47 43 41 39 38 32 30 28 24 26 22 29 25 35 35 32 38 55 47 41 44 49 38 41 35 25 29 36 40 33 32 40 38 32 30 36 37 37

GFSNW_700_spd_117.txt.gz
Wind_Speed
31 26 22 17 16 16 15 14 13 12 10 10 13 15 16 15 12 14 14 10 10 7 8 5 3 4 2 4 4 3 2 4 6 6 7 8 12 13 11 7 5 10 7 16
29 29 24 19 15 12 9 11 11 10 9 11 12 14 12 12 11 7 6 7 5 6 7 3 4 3 2 2 1 1 2 3 5 3 7 15 20 17 19 22 23 23 8 14
25 27 26 23 16 13 8 7 5 8 7 6 7 8 6 6 6 5 4 5 5 4 3 2 2 2 2 3 5 7 8 10 12 12 13 13 15 21 23 22 26 30 44 48
21 23 25 24 20 14 10 5 4 4 3 3 2 3 3 3 2 2 2 2 2 2 2 3 3 5 7 8 10 11 12 17 19 23 25 28 33 35 36 39 44 38 50 41
18 20 22 23 21 17 11 7 4 2 1 1 1 3 2 2 2 3 4 5 4 5 5 8 8 10 11 12 14 15 18 16 23 34 30 22 31 35 36 40 42 44 46 50
19 19 20 20 21 19 14 9 7 5 4 6 6 6 5 5 7 8 7 9 9 10 10 12 13 16 17 20 23 25 24 24 22 17 21 34 28 3 8 16 19 21 35 28
20 22 20 19 19 19 15 12 9 6 6 6 8 8 10 11 12 13 13 13 15 14 16 18 20 22 23 24 26 29 30 21 14 18 19 3 6 17 25 23 24 24 28 23
21 22 22 20 19 18 17 13 11 9 8 8 6 8 9 12 14 15 17 18 19 19 21 22 20 20 16 11 13 19 25 26 15 7 7 28 14 2 7 13 21 19 20 16
23 22 21 19 19 18 18 16 12 10 10 7 8 8 11 10 11 13 13 14 15 15 16 15 6 5 7 5 7 9 11 18 20 7 6 6 7 14 16 18 14 3 18 13
25 24 22 21 18 19 16 17 15 13 12 9 12 10 10 9 13 14 15 12 13 16 16 16 10 9 11 6 6 7 10 15 27 22 12 19 23 18 15 7 13 27 26 23
21 23 22 22 20 19 20 18 17 16 14 12 12 16 17 17 14 15 15 16 8 9 8 7 7 8 9 11 14 16 12 10 12 15 11 14 7 8 17 29 36 32 29 27
21 23 26 24 24 21 19 21 20 19 17 16 17 12 9 9 10 12 14 14 15 9 9 9 8 12 17 22 17 19 15 12 15 17 18 30 40 37 39 39 38 38 35 33
23 22 26 28 27 25 22 20 23 25 22 19 12 15 13 10 15 17 20 19 21 23 23 23 23 25 23 26 28 28 28 26 35 37 44 41 40 39 38 39 38 35 33 31
27 26 28 30 28 29 26 24 22 24 28 30 12 7 15 23 26 17 18 18 23 25 24 26 28 33 23 32 36 41 43 43 44 46 42 40 34 24 23 27 28 29 30 32
28 30 30 34 32 30 32 28 26 24 23 30 31 27 29 18 21 30 27 20 21 25 27 30 33 34 34 36 39 43 37 35 34 37 26 30 30 29 32 32 27 26 28 29
32 33 33 32 34 34 31 31 28 23 21 32 36 27 32 29 23 16 10 19 21 21 24 28 32 32 32 22 37 38 27 28 28 35 30 30 28 28 29 29 30 29 27 25
32 32 33 32 32 31 29 31 32 28 29 33 27 26 15 7 6 14 27 26 31 29 29 34 34 36 34 41 42 28 33 28 26 32 35 37 27 28 26 27 26 26 26 24
25 25 25 27 26 26 26 29 29 29 31 30 16 17 17 22 27 30 31 30 27 30 32 37 34 34 34 44 40 34 29 33 30 31 32 38 40 34 29 26 25 24 23 23
21 23 25 27 26 25 25 26 29 30 28 27 24 25 21 19 18 23 30 36 37 34 34 33 26 30 27 27 24 24 22 30 34 31 28 30 32 30 28 27 25 22 20 23
22 24 25 26 24 24 26 28 28 32 34 36 40 36 38 31 32 30 24 19 14 17 20 15 19 29 11 18 26 31 31 35 36 39 35 30 30 28 25 23 21 20 21 25
23 23 23 24 24 23 23 16 10 9 7 10 3 7 10 11 18 21 12 10 9 9 11 11 9 17 12 19 16 23 30 31 27 27 27 24 23 22 19 16 18 21 23 23
21 21 21 21 20 16 11 9 8 8 6 5 7 6 3 7 8 9 10 12 8 8 11 8 6 11 17 15 15 19 21 26 20 16 17 19 19 16 12 16 20 21 19 19
22 21 22 13 11 17 11 12 12 8 7 7 9 12 16 15 12 8 12 9 11 15 11 16 27 22 20 19 18 19 20 17 22 24 19 18 16 16 18 20 23 21 18 20
23 22 18 13 12 10 15 16 17 15 18 19 17 17 15 17 9 7 7 10 9 8 10 22 24 13 12 10 21 35 38 34 28 25 27 26 27 23 20 23 24 25 23 24
23 18 18 25 29 31 28 23 22 21 18 18 18 17 15 20 16 17 13 9 12 13 21 17 15 27 35 29 27 43 38 34 30 30 31 38 41 40 27 22 27 27 29 29
30 31 33 44 43 39 36 33 31 30 27 26 26 24 19 22 18 19 20 20 31 39 35 39 40 41 44 44 51 55 48 45 41 37 36 43 40 40 39 37 35 32 32 35
38 49 49 48 48 46 43 37 33 30 25 22 20 22 20 21 21 33 38 45 47 41 43 38 38 44 57 56 57 52 47 47 47 48 47 45 45 47 49 47 42 40 41 36